Regional Weather Roundup
Issued by NWS

Home | Current Version | Previous Version | Graphics & Text | Print | Product List | Glossary On
Versions: 1 2 3 4 5 6 7 8 9 10 11 12 13 14 15 16 17 18 19 20 21 22 23 24 25 26 27 28 29 30 31 32 33 34 35 36 37 38 39 40 41 42 43 44 45 46 47 48 49 50
000
ASUS43 KMKX 281823
RWRWI

WISCONSIN REGIONAL WEATHER ROUNDUP
NATIONAL WEATHER SERVICE MILWAUKEE/SULLIVAN WI
100 PM CDT THU MAY 28 2015

NOTE: "FAIR" INDICATES FEW OR NO CLOUDS BELOW 12,000 FEET WITH NO
SIGNIFICANT WEATHER AND/OR OBSTRUCTIONS TO VISIBILITY.

WIZ001-002-006>008-014>016-023>028-281900-
NORTHWEST WISCONSIN

CITY           SKY/WX    TMP DP  RH WIND       PRES   REMARKS
SUPERIOR ARPT  CLOUDY    43  41  93 E13       30.11F FOG
ASHLAND        MOSUNNY   60  52  74 N8        30.07F
6HR MIN TEMP:  47; 6HR MAX TEMP:  60;

HAYWARD        SUNNY     82  52  35 S16G22    30.05F HX  81
6HR MIN TEMP:  54; 6HR MAX TEMP:  82;

SIREN          MOSUNNY   82  52  34 SW13      30.03F HX  81
CUMBERLAND     SUNNY     79  52  38 SW17G24   30.06F
RICE LAKE      SUNNY     83  50  32 S14       30.08S HX  81
CHETEK         SUNNY     81  54  39 S10G20    30.07S HX  81
LADYSMITH      MOSUNNY   81  57  43 S8G17     30.09F HX  81
EAU CLAIRE     NOT AVBL
MENOMONIE      SUNNY     81  59  47 S9        30.07F HX  81
NEW RICHMOND   SUNNY     80  55  42 SW12      30.05F HX  80
OSCEOLA        SUNNY     82  55  40 S10       30.06F HX  81
$$

WIZ003>005-009-010-017-018-281900-
NORTH CENTRAL WISCONSIN

CITY           SKY/WX    TMP DP  RH WIND       PRES   REMARKS
MANITOWISH WTR PTSUNNY   80  54  41 S15G21    30.08F HX  80
ARBOR VITAE    MOSUNNY   80  55  42 SW16      30.10F HX  80
WOODRUFF       MOSUNNY   80  55  42 SW16      30.10F HX  80
RHINELANDER    MOSUNNY   81  52  36 SW12G21   30.12F HX  80
6HR MIN TEMP:  53; 6HR MAX TEMP:  82;

EAGLE RIVER    MOSUNNY   80  47  31 S13       30.10F
LAND O LAKES   MOSUNNY   81  47  29 S9G17     30.11F HX  80
PHILLIPS       MOSUNNY   79  56  44 SW12G17   30.09F HX  80
TOMAHAWK       MOSUNNY   79  57  46 S6        30.12F HX  80
MEDFORD        MOSUNNY   77  61  57 SW9       30.12F
MERRILL        SUNNY     79  60  52 SW10      30.12F HX  80
$$

WIZ029-030-035-036-043>047-281900-
CENTRAL WISCONSIN

CITY           SKY/WX    TMP DP  RH WIND       PRES   REMARKS
WAUSAU         SUNNY     80  58  46 S9        30.10F HX  80
6HR MIN TEMP:  57; 6HR MAX TEMP:  80; 6HR PCP: TRACE;

MOSINEE        MOSUNNY   77  63  61 SW7       30.14F
MARSHFIELD     MOSUNNY   82  56  40 S7G17     30.11F HX  82
6HR MIN TEMP:  59; 6HR MAX TEMP:  82;

STEVENS POINT  MOSUNNY   79  58  48 S9G16     30.13F HX  80
WAUPACA        SUNNY     83  58  41 S6        30.13F HX  83
WAUTOMA        NOT AVBL
WISC RAPIDS    MOSUNNY   83  55  38 SW10      30.13F HX  82
6HR MIN TEMP:  60; 6HR MAX TEMP:  83;

CAMP DOUGLAS   NOT AVBL
$$

WIZ011>013-019>022-031-037>040-048>050-281900-
NORTHEAST WISCONSIN

CITY           SKY/WX    TMP DP  RH WIND       PRES   REMARKS
ANTIGO         SUNNY     76  65  69 S8        30.14F
SHAWANO        SUNNY     80  62  54 SW7       30.13F HX  81
OCONTO         SUNNY     76  63  62 SE6       30.13F
STURGEON BAY   SUNNY     73  63  68 S7        30.18S
6HR MIN TEMP:  55; 6HR MAX TEMP:  73;

GREEN BAY      SUNNY     80  64  58 S8        30.13F HX  82
6HR MIN TEMP:  61; 6HR MAX TEMP:  80;

MANITOWOC      NOT AVBL
APPLETON       MOSUNNY   81  57  44 SW8       30.14F HX  81
CLINTONVILLE   SUNNY     79  61  53 SW5       30.13F HX  80
OSHKOSH        MOSUNNY   80  60  50 S10       30.14F HX  81
6HR MIN TEMP:  64; 6HR MAX TEMP:  81;

$$

WIZ032>034-041-042-053>061-281900-
SOUTHWEST WISCONSIN

CITY           SKY/WX    TMP DP  RH WIND       PRES   REMARKS
LA CROSSE      SUNNY     83  59  44 S13       30.09F HX  83
6HR MIN TEMP:  63; 6HR MAX TEMP:  83;

SPARTA         MOSUNNY   82  53  37 S10G18    30.12S HX  81
VIROQUA        PTSUNNY   78  57  48 S10G17    30.14F
BOSCOBEL       MOSUNNY   82  58  43 VRB5      30.12F HX  82
6HR MIN TEMP:  57; 6HR MAX TEMP:  83;

PRAIRIE DU CHI MOSUNNY   79  54  42 SE8       30.11F
PLATTEVILLE    SUNNY     78  57  48 S10       30.15F
$$

WIZ056-057-062-063-064-067-068-281900-
SOUTH CENTRAL WISCONSIN

CITY           SKY/WX    TMP DP  RH WIND       PRES   REMARKS
REEDSBURG      MOSUNNY   79  61  54 S8        30.13F HX  80
BARABOO/DELLS  MOSUNNY   78  60  53 S8G16     30.14F
LONE ROCK      NOT AVBL
MINERAL POINT  MOSUNNY   79  54  41 S8        30.16F
MADISON        PTSUNNY   81  57  43 S14       30.15F HX  81
6HR MIN TEMP:  64; 6HR MAX TEMP:  81;

MIDDLETON      MOSUNNY   80  53  38 S14G21    30.16F HX  80
WATERTOWN      MOSUNNY  N/A N/A N/A S6        30.15F
MONROE         PTSUNNY   77  55  47 S10       30.16F
JANESVILLE     SUNNY     81  54  39 SE8       30.16F HX  80
$$

WIZ051-052-058>065-066-070>072-281900-
SOUTHEAST WISCONSIN

CITY           SKY/WX    TMP DP  RH WIND       PRES   REMARKS
MILWAUKEE      PTSUNNY   77  58  51 SE15      30.17F
6HR MIN TEMP:  64; 6HR MAX TEMP:  80;

WAUKESHA       MOSUNNY   79  57  47 S6        30.18F HX  80
MILWAUKEE/TIMM MOSUNNY   81  54  39 S6        30.17F HX  80
RACINE         MOSUNNY   73  57  57 SE10      30.20F
6HR MIN TEMP:  64; 6HR MAX TEMP:  79;

BURLINGTON     MOSUNNY   79  53  41 S8        30.17F
KENOSHA        MOSUNNY   78  59  51 SE13      30.19S
6HR MIN TEMP:  61; 6HR MAX TEMP:  79;

FOND DU LAC    MOSUNNY   80  62  54 S10       30.15F HX  81
6HR MIN TEMP:  66; 6HR MAX TEMP:  80;

SHEBOYGAN      MOSUNNY   80  60  50 S9        30.15F HX  81
6HR MIN TEMP:  66; 6HR MAX TEMP:  81;

WEST BEND      MOSUNNY   79  55  44 SW8       30.17S
JUNEAU         MOSUNNY   77  60  55 S7        30.17F
$$

LSZ147-162-281900-
LAKE SUPERIOR

STATION/POSITION TIME  TEMP    WIND        PRES    WAVE
                       AIR SEA DIR/SP/G            HT/PER
                 (UTC) (F)     (DEG/KT/KT) (MB)    (FT/S)
W MID LAKE BUOY  1650   39 37   50/ 14/ 17   N/A     3/ 4
DEVILS ISLAND    1700   40      60/ 17/ 18   N/A
PORT WING        1700   42      30/ 16/ 18   N/A
SAXON HARBOR     1740   46     320/  3/  4   N/A
$$

LMZ867-665-643>646-281900-
LAKE MICHIGAN

STATION/POSITION TIME  TEMP    WIND        PRES    WAVE
                       AIR SEA DIR/SP/G            HT/PER
                 (UTC) (F)     (DEG/KT/KT) (MB)    (FT/S)
CHAMBERS ISLAND  1700   55      10/  7/  9   N/A
N MID LAKE BUOY  1650   40 37  130/  4/  6   N/A     1/ 3
SISTER BAY       1748   71     180/ 11/ 15   N/A
ALGOMA LAKESHORE 1608          190/  2/  5   N/A
KEWAUNEE LAKESHO 1700   50     160/  4/  7   N/A
SHEBOYGAN LAKESH 1700   61     170/ 16/ 16   N/A
PORT WASHINGTON  1740   64     180/  6/  9   N/A
ATWATER BUOY     1700   56 47  140/ 12/ 12   N/A
MILWAUKEE LAKESH 1700          130/  9/ 11   N/A
S MID LAKE BUOY  1650   46 38  160/  8/  8   N/A     0
KENOSHA   LAKESH 1700          170/ 11/ 13   N/A
$$

TC  - TEMPERATURE IN CELSIUS
VSB - VISIBILITY IN STATUTE MILES
WCI - WIND CHILL INDEX
HX  - HEAT INDEX



USA.gov is the U.S. government's official web portal to all federal, state and local government web resources and services.